When you browse on this site, cookies collect data to enhance your experience and personalize the content and advertising you see.
Visit our Privacy Policy to learn more. By continuing to use the site, you agree to this use of cookies and data.
  • în România
  • Lista ţărilor
  • Pe 7 zile
  • Temperatura apei
  • Hartă satelitară
  • Meteo pe hartă
  • Widget-uri
  • user-avatar
    Intrare

    Meteo pe oră la Galway

    Astăzi, 20 Ianuarie, Duminică

    Timp Temperatura Precipitaţii Vânt Presiune Umiditate
    00:00 +7°C° 0.5 mm 3 m/s 759 mmHg 95%
    01:00 +6°C° 0.5 mm 4 m/s 760 mmHg 94%
    02:00 +7°C° 0.5 mm 6 m/s 760 mmHg 94%
    03:00 +5°C° 0.1 mm 6 m/s 761 mmHg 90%
    04:00 +5°C° 0.1 mm 7 m/s 762 mmHg 87%
    05:00 +5°C° 0 mm 6 m/s 762 mmHg 87%
    06:00 +4°C° 0 mm 6 m/s 763 mmHg 86%
    07:00 +4°C° 0 mm 6 m/s 764 mmHg 85%
    08:00 +3°C° 0 mm 6 m/s 765 mmHg 85%
    09:00 +4°C° 0 mm 6 m/s 766 mmHg 81%
    10:00 +5°C° 0 mm 6 m/s 766 mmHg 77%
    11:00 +6°C° 0 mm 5 m/s 767 mmHg 73%
    12:00 +6°C° 0 mm 5 m/s 767 mmHg 73%
    13:00 +6°C° 0 mm 4 m/s 768 mmHg 73%
    14:00 +6°C° 0 mm 4 m/s 768 mmHg 72%
    15:00 +5°C° 0 mm 3 m/s 768 mmHg 76%
    16:00 +4°C° 0 mm 3 m/s 769 mmHg 79%
    17:00 +4°C° 0 mm 2 m/s 770 mmHg 82%
    18:00 +3°C° 0 mm 2 m/s 770 mmHg 82%
    19:00 +4°C° 0 mm 1 m/s 770 mmHg 83%
    20:00 +2°C° 0 mm 0 m/s 770 mmHg 83%
    21:00 +3°C° 0 mm 1 m/s 770 mmHg 83%
    22:00 +3°C° 0 mm 1 m/s 770 mmHg 83%
    23:00 +3°C° 0 mm 1 m/s 770 mmHg 82%

    Mâine, 21 Ianuarie, Luni

    Timp Temperatura Precipitaţii Vânt Presiune Umiditate
    00:00 +2°C° 0 mm 2 m/s 769 mmHg 83%
    01:00 +1°C° 0 mm 3 m/s 769 mmHg 84%
    02:00 +1°C° 0 mm 3 m/s 768 mmHg 84%
    03:00 0°C° 0 mm 4 m/s 767 mmHg 84%
    04:00 +1°C° 0 mm 4 m/s 767 mmHg 84%
    05:00 +1°C° 0 mm 5 m/s 766 mmHg 84%
    06:00 +1°C° 0 mm 5 m/s 765 mmHg 83%
    07:00 +2°C° 0 mm 6 m/s 764 mmHg 81%
    08:00 +2°C° 0 mm 6 m/s 763 mmHg 80%
    09:00 +3°C° 0.1 mm 7 m/s 762 mmHg 80%
    10:00 +4°C° 0.1 mm 8 m/s 760 mmHg 80%
    11:00 +5°C° 0.1 mm 9 m/s 759 mmHg 80%
    12:00 +3°C° 2 mm 9 m/s 758 mmHg 83%
    13:00 +3°C° 2 mm 9 m/s 757 mmHg 85%
    14:00 +3°C° 2 mm 9 m/s 756 mmHg 88%
    15:00 +2°C° 0.4 mm 8 m/s 756 mmHg 84%
    16:00 +2°C° 0.4 mm 7 m/s 756 mmHg 79%
    17:00 0°C° 0.4 mm 7 m/s 756 mmHg 75%
    18:00 0°C° 0.1 mm 7 m/s 756 mmHg 75%
    19:00 0°C° 0.1 mm 7 m/s 756 mmHg 74%
    20:00 0°C° 0.1 mm 7 m/s 756 mmHg 74%
    21:00 0°C° 0.2 mm 7 m/s 755 mmHg 74%
    22:00 0°C° 0.2 mm 7 m/s 755 mmHg 75%
    23:00 0°C° 0.2 mm 7 m/s 755 mmHg 76%

    Poimâine, 22 Ianuarie, Marţi

    Timp Temperatura Precipitaţii Vânt Presiune Umiditate
    00:00 0°C° 0.2 mm 7 m/s 754 mmHg 76%
    01:00 0°C° 0.2 mm 7 m/s 754 mmHg 76%
    02:00 -1°C° 0.2 mm 7 m/s 754 mmHg 76%
    03:00 -1°C° 0.2 mm 7 m/s 754 mmHg 76%
    04:00 -1°C° 0.2 mm 7 m/s 754 mmHg 76%
    05:00 -1°C° 0.2 mm 6 m/s 754 mmHg 75%
    06:00 -1°C° 0.2 mm 6 m/s 754 mmHg 77%
    07:00 -1°C° 0.2 mm 6 m/s 754 mmHg 78%
    08:00 -1°C° 0.2 mm 6 m/s 754 mmHg 79%
    09:00 +1°C° 0.2 mm 6 m/s 754 mmHg 79%
    10:00 +1°C° 0.2 mm 6 m/s 754 mmHg 79%
    11:00 +1°C° 0.2 mm 6 m/s 754 mmHg 79%
    12:00 +2°C° 0.3 mm 6 m/s 754 mmHg 80%
    13:00 +2°C° 0.3 mm 5 m/s 754 mmHg 82%
    14:00 +2°C° 0.3 mm 5 m/s 754 mmHg 83%
    15:00 +3°C° 0.4 mm 4 m/s 754 mmHg 85%
    16:00 +1°C° 0.4 mm 4 m/s 754 mmHg 87%
    17:00 +2°C° 0.4 mm 3 m/s 754 mmHg 89%
    18:00 +2°C° 0.1 mm 3 m/s 754 mmHg 89%
    19:00 +3°C° 0.1 mm 2 m/s 754 mmHg 90%
    20:00 +3°C° 0.1 mm 2 m/s 754 mmHg 90%
    21:00 +3°C° 0 mm 2 m/s 754 mmHg 90%
    22:00 +3°C° 0 mm 2 m/s 754 mmHg 91%
    23:00 +3°C° 0 mm 2 m/s 754 mmHg 91%

    23 Ianuarie, Miercuri

    Timp Temperatura Precipitaţii Vânt Presiune Umiditate
    00:00 +4°C° 0 mm 2 m/s 754 mmHg 92%
    01:00 +4°C° 0 mm 2 m/s 754 mmHg 92%
    02:00 +4°C° 0 mm 2 m/s 755 mmHg 93%
    03:00 +5°C° 0.1 mm 1 m/s 755 mmHg 93%
    04:00 +5°C° 0.1 mm 1 m/s 755 mmHg 94%
    05:00 +4°C° 0.1 mm 0 m/s 755 mmHg 95%
    06:00 +5°C° 0 mm 1 m/s 755 mmHg 95%
    07:00 +5°C° 0 mm 1 m/s 756 mmHg 95%
    08:00 +5°C° 0 mm 1 m/s 756 mmHg 95%
    09:00 +6°C° 0.1 mm 1 m/s 757 mmHg 95%
    10:00 +6°C° 0.1 mm 1 m/s 757 mmHg 94%
    11:00 +6°C° 0.1 mm 2 m/s 757 mmHg 94%
    12:00 +6°C° 0 mm 2 m/s 757 mmHg 95%
    13:00 +6°C° 0 mm 2 m/s 757 mmHg 95%
    14:00 +7°C° 0 mm 2 m/s 757 mmHg 96%
    15:00 +7°C° 0.5 mm 2 m/s 757 mmHg 97%
    16:00 +7°C° 0.5 mm 3 m/s 757 mmHg 97%
    17:00 +8°C° 0.5 mm 3 m/s 757 mmHg 98%
    18:00 +8°C° 0.3 mm 3 m/s 757 mmHg 98%
    19:00 +8°C° 0.3 mm 4 m/s 758 mmHg 97%
    20:00 +8°C° 0.3 mm 5 m/s 758 mmHg 97%
    21:00 +9°C° 0.1 mm 5 m/s 758 mmHg 96%
    22:00 +9°C° 0.1 mm 5 m/s 758 mmHg 96%
    23:00 +9°C° 0.1 mm 5 m/s 759 mmHg 96%

    24 Ianuarie, Joi

    Timp Temperatura Precipitaţii Vânt Presiune Umiditate
    00:00 +9°C° 0 mm 5 m/s 759 mmHg 96%
    01:00 +10°C° 0 mm 4 m/s 759 mmHg 96%
    02:00 +8°C° 0 mm 4 m/s 759 mmHg 96%
    03:00 +9°C° 0 mm 5 m/s 759 mmHg 95%
    04:00 +9°C° 0 mm 5 m/s 760 mmHg 95%
    05:00 +9°C° 0 mm 6 m/s 760 mmHg 95%
    06:00 +9°C° 0 mm 6 m/s 760 mmHg 94%
    07:00 +9°C° 0 mm 5 m/s 761 mmHg 94%
    08:00 +9°C° 0 mm 5 m/s 761 mmHg 93%
    09:00 +9°C° 0 mm 5 m/s 761 mmHg 92%
    10:00 +9°C° 0 mm 5 m/s 762 mmHg 90%
    11:00 +9°C° 0 mm 5 m/s 762 mmHg 89%
    12:00 +9°C° 0 mm 5 m/s 762 mmHg 87%
    13:00 +9°C° 0 mm 5 m/s 762 mmHg 86%
    14:00 +9°C° 0 mm 5 m/s 762 mmHg 84%
    15:00 +9°C° 0 mm 5 m/s 762 mmHg 85%
    16:00 +9°C° 0 mm 5 m/s 762 mmHg 87%
    17:00 +9°C° 0 mm 5 m/s 763 mmHg 88%
    18:00 +8°C° 0 mm 4 m/s 763 mmHg 88%
    19:00 +8°C° 0 mm 4 m/s 763 mmHg 88%
    20:00 +8°C° 0 mm 4 m/s 763 mmHg 88%
    21:00 +8°C° 0.1 mm 4 m/s 763 mmHg 89%
    22:00 +10°C° 0.1 mm 4 m/s 763 mmHg 89%
    23:00 +9°C° 0.1 mm 5 m/s 763 mmHg 90%

    25 Ianuarie, Vineri

    Timp Temperatura Precipitaţii Vânt Presiune Umiditate
    00:00 +9°C° 0 mm 5 m/s 763 mmHg 89%
    01:00 +9°C° 0 mm 5 m/s 763 mmHg 88%
    02:00 +9°C° 0 mm 5 m/s 763 mmHg 87%
    03:00 +8°C° 0 mm 5 m/s 763 mmHg 88%
    04:00 +8°C° 0 mm 5 m/s 763 mmHg 89%
    05:00 +7°C° 0 mm 5 m/s 763 mmHg 91%
    06:00 +8°C° 0 mm 6 m/s 763 mmHg 90%
    07:00 +8°C° 0 mm 6 m/s 763 mmHg 90%
    08:00 +8°C° 0 mm 6 m/s 763 mmHg 90%
    09:00 +8°C° 0.2 mm 6 m/s 762 mmHg 91%
    10:00 +9°C° 0.2 mm 7 m/s 762 mmHg 92%
    11:00 +9°C° 0.2 mm 7 m/s 762 mmHg 93%
    12:00 +9°C° 0.2 mm 7 m/s 762 mmHg 93%
    13:00 +9°C° 0.2 mm 6 m/s 761 mmHg 94%
    14:00 +10°C° 0.2 mm 6 m/s 761 mmHg 94%
    15:00 +9°C° 1 mm 6 m/s 760 mmHg 94%
    16:00 +9°C° 1 mm 6 m/s 760 mmHg 94%
    17:00 +9°C° 1 mm 6 m/s 759 mmHg 94%
    18:00 +9°C° 0.1 mm 7 m/s 758 mmHg 93%
    19:00 +9°C° 0.1 mm 8 m/s 758 mmHg 93%
    20:00 +8°C° 0.1 mm 9 m/s 757 mmHg 92%
    21:00 +9°C° 2 mm 8 m/s 756 mmHg 92%
    22:00 +7°C° 2 mm 8 m/s 756 mmHg 93%
    23:00 +6°C° 2 mm 7 m/s 756 mmHg 93%
    Arată mai mult